sat.trackr.live / text

‹ back to catalog

STARLINK-5629

NORAD 55419 · 2023-014AE

PAYLOAD ACTIVE UNKNOWN

§ Identity

Operator
Country
US
Launch date
2023-01-31
Launch site
AFWTR
Launch vehicle
Mass (kg)
RCS (m²)

Purposes: comms

External: N2YO · Heavens-Above · Gunter

§ Orbital elements

Epoch: 2026-05-24T23:53:06.671904Z

Period
96.11 min
Inclination
69.9992°
Eccentricity
0.0003974
Mean motion
14.98333490 rev/d
Perigee alt
569.3 km
Apogee alt
574.8 km
Semi-major
6,950.2 km
B*
-7.2122e-6
RAAN
251.9931°
Arg perigee
268.0719°
Mean anomaly
91.9985°
Rev number
18,299

§ Raw data

STARLINK-56291 55419U 23014AE  26144.99521611 -.00000179  00000+0 -72122-5 0  99922 55419  69.9992 251.9931 0003974 268.0719  91.9985 14.98333490182990

JSON: /api/v1/satellites/55419 · /tle

For live sub-satellite position, see the globe view (requires WebGL).

§ Visibility from observer

Set your observer location to see the next 7 days of passes ≥ 10°. The values pass through the URL so the page stays shareable.

No JS? Fill the form by hand. The geolocation button needs JavaScript.